Back to catalog

SL-14 R/B

AlivePO
NORAD 22040·ROCKET BODY·🇷🇺 Russia

Launched Jul 13, 1992 from Plesetsk Cosmodrome

Loading…

Next Passes (next 24 hours)

TLE

FreshSource: Space-Track

Epoch: Sep 14, 2026, 22:48 UTC

1 22040U 92042G   26257.95009791  .00000011  00000-0  22684-5 0  9996
2 22040  82.6058 310.9711 0042276  35.9481 144.7418 12.55350093565684

Track SL-14 R/B in real time with AllMySat

Download on the App Store